Location: Dittelbrunn
(50.0738°N, 10.2196°E)
Time: 05:25:30
(UTC+00:00)

Cosmos 1867 - Pass Details

Date: 18 September 2020
Orbit: 777 x 799 km, 65.0° (Epoch: 20 October)

Event Time Altitude Azimuth Distance (km) Brightness Sun altitude
Rises 18:25:16 0° 319° (NW) 3,314 7.8 -10.3°
Reaches altitude 10° 18:27:42 10° 319° (NW) 2,381 7.0 -10.7°
Maximum altitude 18:33:12 87° 234° (SW) 807 3.6 -11.6°
Enters shadow 18:38:36 10° 144° (SE) 2,341 5.5 -12.4°
